TimeCST,TemperatureF,Dew PointF,Humidity,Sea Level PressureIn,VisibilityMPH,Wind Direction,Wind SpeedMPH,Gust SpeedMPH,PrecipitationIn,Events,Conditions,WindDirDegrees,DateUTC
12:15 AM,46.4,33.8,62,29.80,10.0,West,6.9,-,N/A,,Clear,260,2014-01-27 06:15:00
12:35 AM,44.6,33.8,66,29.80,10.0,West,9.2,-,N/A,,Clear,260,2014-01-27 06:35:00
12:55 AM,42.8,33.8,70,29.80,10.0,West,6.9,-,N/A,,Clear,270,2014-01-27 06:55:00
1:15 AM,42.8,33.8,70,29.81,10.0,West,5.8,-,N/A,,Clear,260,2014-01-27 07:15:00
1:35 AM,41.0,30.2,65,29.87,10.0,NNW,28.8,38.0,N/A,,Clear,340,2014-01-27 07:35:00
1:55 AM,37.4,28.4,70,29.92,10.0,North,26.5,-,N/A,,Clear,10,2014-01-27 07:55:00
2:15 AM,33.8,24.8,70,29.94,10.0,North,27.6,-,N/A,,Clear,360,2014-01-27 08:15:00
2:35 AM,33.8,24.8,70,29.95,10.0,North,19.6,-,N/A,,Clear,360,2014-01-27 08:35:00
2:55 AM,32.0,23.0,69,29.98,10.0,North,26.5,-,N/A,,Clear,10,2014-01-27 08:55:00
3:15 AM,30.2,19.4,64,30.00,10.0,North,21.9,-,N/A,,Clear,10,2014-01-27 09:15:00
3:35 AM,28.4,19.4,69,30.01,10.0,North,19.6,-,N/A,,Clear,360,2014-01-27 09:35:00
3:55 AM,26.6,15.8,64,30.04,10.0,North,21.9,-,N/A,,Clear,10,2014-01-27 09:55:00
4:15 AM,26.6,15.8,64,30.07,10.0,North,24.2,-,N/A,,Clear,10,2014-01-27 10:15:00
4:35 AM,24.8,12.2,59,30.08,10.0,North,26.5,-,N/A,,Clear,10,2014-01-27 10:35:00
4:55 AM,24.8,12.2,59,30.09,10.0,North,19.6,-,N/A,,Clear,10,2014-01-27 10:55:00
5:15 AM,24.8,8.6,50,30.11,10.0,North,19.6,-,N/A,,Clear,10,2014-01-27 11:15:00
5:35 AM,23.0,3.2,43,30.13,10.0,North,21.9,-,N/A,,Clear,10,2014-01-27 11:35:00
5:55 AM,21.2,3.2,46,30.14,10.0,North,18.4,-,N/A,,Clear,10,2014-01-27 11:55:00
6:15 AM,21.2,6.8,54,30.15,10.0,NNE,17.3,-,N/A,,Clear,20,2014-01-27 12:15:00
6:35 AM,21.2,3.2,46,30.19,10.0,NNE,19.6,-,N/A,,Clear,20,2014-01-27 12:35:00
6:55 AM,21.2,1.4,42,30.20,10.0,NNE,15.0,-,N/A,,Clear,20,2014-01-27 12:55:00
7:15 AM,19.4,-0.4,42,30.22,10.0,North,21.9,-,N/A,,Clear,10,2014-01-27 13:15:00
7:35 AM,19.4,-2.2,39,30.24,10.0,NNE,21.9,-,N/A,,Clear,20,2014-01-27 13:35:00
7:55 AM,19.4,-0.4,42,30.25,10.0,North,15.0,-,N/A,,Scattered Clouds,10,2014-01-27 13:55:00
8:15 AM,19.4,-2.2,39,30.27,10.0,North,16.1,-,N/A,,Overcast,10,2014-01-27 14:15:00
8:35 AM,19.4,-2.2,39,30.27,10.0,NNE,21.9,-,N/A,,Overcast,20,2014-01-27 14:35:00
8:55 AM,17.6,-2.2,42,30.29,10.0,NNE,19.6,-,N/A,,Overcast,20,2014-01-27 14:55:00
9:15 AM,17.6,-2.2,42,30.30,10.0,North,16.1,-,N/A,,Mostly Cloudy,10,2014-01-27 15:15:00
9:35 AM,19.4,-0.4,42,30.32,10.0,NNE,15.0,-,N/A,,Scattered Clouds,30,2014-01-27 15:35:00
9:55 AM,19.4,-2.2,39,30.32,10.0,North,19.6,-,N/A,,Mostly Cloudy,10,2014-01-27 15:55:00
10:15 AM,19.4,-2.2,39,30.33,10.0,NNE,16.1,-,N/A,,Scattered Clouds,20,2014-01-27 16:15:00
10:35 AM,19.4,-4.0,36,30.33,10.0,North,19.6,-,N/A,,Mostly Cloudy,10,2014-01-27 16:35:00
10:55 AM,17.6,-5.8,35,30.34,10.0,North,18.4,-,N/A,,Scattered Clouds,360,2014-01-27 16:55:00
11:15 AM,17.6,-4.0,38,30.34,10.0,North,15.0,-,N/A,,Mostly Cloudy,360,2014-01-27 17:15:00
11:35 AM,19.4,-4.0,36,30.33,10.0,NNE,13.8,-,N/A,,Partly Cloudy,20,2014-01-27 17:35:00
11:55 AM,17.6,-2.2,42,30.33,10.0,North,13.8,-,N/A,,Clear,360,2014-01-27 17:55:00
12:15 PM,19.4,-4.0,36,30.33,10.0,NNE,15.0,-,N/A,,Partly Cloudy,20,2014-01-27 18:15:00
12:35 PM,19.4,-5.8,33,30.32,10.0,North,13.8,-,N/A,,Scattered Clouds,10,2014-01-27 18:35:00
12:55 PM,19.4,-5.8,33,30.32,10.0,North,13.8,-,N/A,,Partly Cloudy,350,2014-01-27 18:55:00
1:15 PM,17.6,-5.8,35,30.31,10.0,North,15.0,-,N/A,,Scattered Clouds,10,2014-01-27 19:15:00
1:35 PM,19.4,-5.8,33,30.30,10.0,North,13.8,-,N/A,,Scattered Clouds,360,2014-01-27 19:35:00
1:55 PM,19.4,-4.0,36,30.30,10.0,North,19.6,-,N/A,,Mostly Cloudy,350,2014-01-27 19:55:00
2:15 PM,19.4,-5.8,33,30.31,10.0,North,17.3,-,N/A,,Scattered Clouds,350,2014-01-27 20:15:00
2:35 PM,17.6,-5.8,35,30.31,10.0,North,13.8,-,N/A,,Mostly Cloudy,10,2014-01-27 20:35:00
2:55 PM,17.6,-7.6,32,30.33,10.0,North,16.1,-,N/A,,Mostly Cloudy,10,2014-01-27 20:55:00
3:15 PM,17.6,-5.8,35,30.33,10.0,NNE,15.0,-,N/A,,Partly Cloudy,20,2014-01-27 21:15:00
3:35 PM,17.6,-7.6,32,30.34,10.0,North,16.1,-,N/A,,Partly Cloudy,360,2014-01-27 21:35:00
3:55 PM,17.6,-5.8,35,30.35,10.0,NNE,15.0,-,N/A,,Scattered Clouds,20,2014-01-27 21:55:00
4:15 PM,17.6,-5.8,35,30.35,10.0,North,12.7,-,N/A,,Mostly Cloudy,10,2014-01-27 22:15:00
4:35 PM,15.8,-5.8,38,30.35,10.0,North,12.7,-,N/A,,Scattered Clouds,360,2014-01-27 22:35:00
4:55 PM,15.8,-5.8,38,30.35,10.0,North,10.4,-,N/A,,Mostly Cloudy,10,2014-01-27 22:55:00
5:15 PM,15.8,-4.0,41,30.36,10.0,NNE,12.7,-,N/A,,Partly Cloudy,20,2014-01-27 23:15:00
5:35 PM,15.8,-4.0,41,30.36,10.0,NNE,13.8,-,N/A,,Scattered Clouds,20,2014-01-27 23:35:00
5:55 PM,15.8,-4.0,41,30.38,10.0,NNE,13.8,-,N/A,,Mostly Cloudy,20,2014-01-27 23:55:00
6:15 PM,15.8,-4.0,41,30.39,10.0,NNE,11.5,-,N/A,,Overcast,20,2014-01-28 00:15:00
6:35 PM,15.8,-4.0,41,30.39,10.0,NNE,12.7,-,N/A,,Mostly Cloudy,20,2014-01-28 00:35:00
6:55 PM,15.8,-4.0,41,30.40,10.0,NNE,11.5,-,N/A,,Mostly Cloudy,20,2014-01-28 00:55:00
7:15 PM,15.8,-4.0,41,30.40,10.0,NNE,11.5,-,N/A,,Overcast,20,2014-01-28 01:15:00
7:35 PM,15.8,-4.0,41,30.40,10.0,NNE,10.4,-,N/A,,Overcast,20,2014-01-28 01:35:00
7:55 PM,15.8,-2.2,45,30.41,10.0,NNE,12.7,-,N/A,,Overcast,20,2014-01-28 01:55:00
8:15 PM,15.8,-2.2,45,30.41,10.0,NNE,12.7,-,N/A,,Mostly Cloudy,30,2014-01-28 02:15:00
8:35 PM,15.8,-2.2,45,30.41,10.0,North,16.1,-,N/A,,Mostly Cloudy,10,2014-01-28 02:35:00
8:55 PM,15.8,-2.2,45,30.42,10.0,North,13.8,-,N/A,,Mostly Cloudy,10,2014-01-28 02:55:00
9:15 PM,15.8,-2.2,45,30.42,10.0,NNE,12.7,-,N/A,,Partly Cloudy,20,2014-01-28 03:15:00
9:35 PM,14.0,-2.2,49,30.41,10.0,NNE,16.1,-,N/A,,Clear,30,2014-01-28 03:35:00
9:55 PM,14.0,-2.2,49,30.42,10.0,NNE,15.0,-,N/A,,Clear,30,2014-01-28 03:55:00
10:15 PM,14.0,-2.2,49,30.42,10.0,NNE,13.8,-,N/A,,Clear,20,2014-01-28 04:15:00
10:35 PM,14.0,-2.2,49,30.42,10.0,NE,15.0,-,N/A,,Clear,40,2014-01-28 04:35:00
10:55 PM,14.0,-2.2,49,30.43,10.0,NNE,13.8,-,N/A,,Clear,20,2014-01-28 04:55:00
11:15 PM,12.2,-4.0,48,30.44,10.0,NNE,16.1,-,N/A,,Clear,20,2014-01-28 05:15:00
11:35 PM,12.2,-5.8,45,30.44,10.0,NNE,15.0,-,N/A,,Clear,20,2014-01-28 05:35:00
11:55 PM,12.2,-4.0,48,30.45,10.0,North,15.0,-,N/A,,Mostly Cloudy,10,2014-01-28 05:55:00